Station 44027 (LLNR 4) - Jonesport, ME - 20 NM SE of Jonesport, ME Image indicating link to RSS feed of recent meteorological observations for station 44027


Conditions at 44027 as of
(10:10 am ADT)
1310 GMT on 04/16/2024:
     

Click on the graph icon in the table below to see a time series plot of the last five days of that observation.

5-day plot - Wind Direction Wind Direction (WDIR):WSW ( 250 deg true )
5-day plot - Wind Speed Wind Speed (WSPD): 7.8 kts
5-day plot - Wind Gust Wind Gust (GST): 7.8 kts
5-day plot - Atmospheric Pressure Atmospheric Pressure (PRES):29.95 in
5-day plot - Water Temperature Water Temperature (WTMP): 42.1 °F
5-day plot - Wind Speed at 10 Meters Wind Speed at 10 meters (WSPD10M): 7.8 kts
5-day plot - Wind Speed at 20 Meters Wind Speed at 20 meters (WSPD20M): 7.8 kts
5-day plot -  Wind Speed, Wind Gust and Atmospheric Pressure Combined plot of Wind Speed, Gust, and Air Pressure
Supplemental Measurements
Highest 1-minute Wind Speed
Time (ADT)5-day plot - 1-Minute Wind Speed WSPD 5-day plot - 1-Minute Wind Direction WDIR
10:01 am 7.8 kts-
Previous observations
TIME
(ADT)
5-day plot - Wind Direction
WDIR
 
5-day plot - Wind Speed
WSPD
kts
5-day plot - Wind Gust
GST
kts
5-day plot - Wave Height
WVHT
ft
5-day plot - Dominant Wave Period
DPD
sec
5-day plot - Average Wave Period
APD
sec
5-day plot - Mean Wave Direction
MWD
 
5-day plot - Atmospheric Pressure
PRES
in
5-day plot - Pressure Tendency
PTDY
in
5-day plot - Air Temperature
ATMP
°F
5-day plot - Water Temperature
WTMP
°F
5-day plot - Dew Point
DEWP
°F
5-day plot - Salinity
SAL
psu
5-day plot - Visibility
VIS
nmi
5-day plot - Tide (above MLLW)
TIDE
ft
2024-04-16 10:00 amWSW 5.8 7.8----29.95+0.03- 42.1----
2024-04-16 09:50 amWSW 3.9 5.8 4.3 97.1 S29.94-- 42.1----
2024-04-16 09:40 amWSW 3.9 5.8----29.94-- 42.1----
2024-04-16 09:30 amWSW 5.8 5.8----29.94-- 42.1----
2024-04-16 09:20 amWSW 5.8 5.8 3.9 96.9 S29.95-- 42.1----
2024-04-16 09:10 am W 5.8 7.8 3.9-6.9 S29.95-- 41.9----
2024-04-16 09:00 am W 5.8 9.7----29.95+0.05- 41.9----
2024-04-16 08:50 am W 5.8 7.8 4.3 97.0 S29.95-- 41.9----
2024-04-16 08:40 am W 3.9 5.8----29.94-- 41.9----
2024-04-16 08:30 amWSW 3.9 5.8----29.94-- 41.9----
2024-04-16 08:20 amWSW 3.9 5.8 4.6 97.1 S29.94-- 41.9----
2024-04-16 08:10 am W 5.8 7.8 4.6-7.1 S29.94-- 41.9----
2024-04-16 08:00 amWSW 5.8 7.8----29.94+0.04- 41.9----
2024-04-16 07:50 amWSW 3.9 5.8 3.9 86.8 S29.93-- 41.9----
2024-04-16 07:40 amWSW 3.9 3.9----29.93-- 41.9----
2024-04-16 07:30 am W 3.9 5.8----29.92-- 41.9----
2024-04-16 07:20 am W 3.9 5.8 4.3 96.9SSE29.92-- 41.9----
2024-04-16 07:10 am W 3.9 3.9 4.3-6.9SSE29.92-- 41.7----
2024-04-16 07:00 amWNW 1.9 3.9----29.91+0.01- 41.7----
2024-04-16 06:50 amWNW 1.9 3.9 4.6 97.0SSE29.91-- 41.7----
2024-04-16 06:40 amWNW 1.9 3.9----29.91-- 41.7----
2024-04-16 06:30 amWNW 1.9 3.9----29.90-- 41.7----
2024-04-16 06:20 amWNW 3.9 3.9 3.9 96.6SSE29.90-- 41.7----
2024-04-16 06:10 amWNW 3.9 3.9 3.9-6.6SSE29.90-- 41.7----
2024-04-16 06:00 am NW 3.9 5.8----29.90+0.01- 41.7----
2024-04-16 05:50 amWNW 3.9 5.8 3.9 96.5SSE29.90-- 41.7----
2024-04-16 05:40 amWNW 3.9 5.8----29.90-- 41.7----
2024-04-16 05:30 amWNW 5.8 7.8----29.90-- 41.7----
2024-04-16 05:20 amWNW 5.8 7.8 4.3 96.6SSE29.89-- 41.7----
2024-04-16 05:10 amWNW 5.8 7.8 4.3-6.6SSE29.90-- 41.7----
2024-04-16 05:00 am W 5.8 7.8----29.90+0.02- 41.7----
2024-04-16 04:50 am W 5.8 7.8 3.9 96.4SSE29.90-- 41.7----
2024-04-16 04:40 am W 5.8 7.8----29.91-- 41.7----
2024-04-16 04:30 am W 5.8 7.8----29.91-- 41.7----
2024-04-16 04:20 am W 5.8 7.8 4.3 96.5SSE29.91-- 41.9----
2024-04-16 04:10 am W 5.8 7.8----29.91-- 41.9----
2024-04-16 04:00 am W 7.8 9.7----29.91+0.02- 41.9----
2024-04-16 03:50 am W 7.8 9.7 4.3 96.4SSE29.90-- 41.9----
2024-04-16 03:40 amWNW 7.8 9.7----29.89-- 41.9----
2024-04-16 03:30 amWNW 7.8 9.7----29.89-- 41.9----
2024-04-16 03:20 am W 5.8 7.8 3.9 86.0 S29.89-- 41.9----
2024-04-16 03:10 am W 7.8 7.8----29.88-- 41.9----
2024-04-16 03:00 am W 5.8 7.8----29.88+0.00- 41.9----
2024-04-16 02:50 am W 5.8 7.8 3.9 96.0 S29.88-- 41.9----
2024-04-16 02:40 am W 5.8 7.8----29.88-- 41.9----
2024-04-16 02:30 am W 5.8 7.8----29.88-- 41.9----
2024-04-16 02:20 am W 5.8 7.8 3.9 76.0 S29.88-- 41.9----
2024-04-16 02:10 am W 5.8 5.8 3.9-6.0 S29.88-- 42.1----
2024-04-16 02:00 am W 5.8 5.8----29.88+0.00- 42.1----
2024-04-16 01:50 am W 5.8 7.8 3.9 106.4SSE29.88-- 42.1----
2024-04-16 01:40 am W 7.8 9.7 3.9-6.4SSE29.88-- 42.1----
2024-04-16 01:30 amWSW 7.8 7.8----29.89-- 42.1----
2024-04-16 01:20 amWSW 5.8 7.8 4.3 96.3 S29.88-- 41.9----
2024-04-16 01:10 am SW 5.8 7.8 4.3-6.3 S29.88-- 41.9----
2024-04-16 01:00 am SW 5.8 7.8----29.88+0.00- 41.9----
2024-04-16 12:50 amWSW 5.8 5.8 3.9 96.2SSE29.88-- 41.9----
2024-04-16 12:40 amWSW 5.8 7.8----29.88-- 41.7----
2024-04-16 12:30 am W 5.8 7.8----29.88-- 41.7----
2024-04-16 12:20 am W 5.8 7.8 3.9 96.4SSE29.87-- 41.9----
2024-04-16 12:10 am W 5.8 5.8 3.9-6.4SSE29.87-- 41.9----
2024-04-16 12:00 amWSW 5.8 7.8----29.88+0.05- 41.9----
2024-04-15 11:50 pm W 5.8 7.8 3.6 96.1 S29.88-- 41.9----
2024-04-15 11:40 pmWSW 5.8 5.8----29.88-- 42.1----
2024-04-15 11:30 pmWSW 5.8 5.8----29.88-- 41.9----
2024-04-15 11:20 pm W 5.8 7.8 4.3 96.4SSE29.88-- 41.9----
2024-04-15 11:10 pm W 7.8 7.8 4.3-6.4SSE29.88-- 41.9----
2024-04-15 11:00 pmWSW 7.8 7.8----29.88+0.09- 41.9----
2024-04-15 10:50 pmWSW 5.8 7.8 4.3 96.5SSE29.88-- 41.9----
2024-04-15 10:40 pmWSW 5.8 7.8----29.88-- 42.1----
2024-04-15 10:30 pm SW 7.8 9.7----29.88-- 42.3----
2024-04-15 10:20 pm SW 7.8 11.7 4.6 106.5SSE29.88-- 42.3----
2024-04-15 10:10 pm S 11.7 13.6 4.6-6.5SSE29.88-- 42.3----
2024-04-15 10:00 pm S 7.8 13.6----29.88+0.10- 42.3----
2024-04-15 09:50 pm SW 5.8 7.8 4.3 106.5SSE29.86-- 42.3----
2024-04-15 09:40 pm SW 1.9 3.9----29.85-- 42.3----
2024-04-15 09:30 pmWSW 1.9 3.9----29.85-- 42.3----
2024-04-15 09:20 pm W 1.9 3.9 4.3 106.4SSE29.85-- 42.3----
2024-04-15 09:10 pmWSW 1.9 3.9 4.3-6.4SSE29.84-- 42.3----
2024-04-15 09:00 pmSSW 1.9 3.9----29.83+0.07- 42.3----
2024-04-15 08:50 pm- 0.0 1.9 4.3 106.8SSE29.82-- 42.3----
2024-04-15 08:40 pm- 0.0 1.9----29.82-- 42.3----
2024-04-15 08:10 pmWSW 3.9 7.8 4.6-6.6SSE29.80-- 42.3----
2024-04-15 08:00 pm SW 5.8 7.8----29.80+0.04- 42.3----
2024-04-15 07:50 pm SW 5.8 7.8 3.9 106.1SSE29.79-- 42.1----
2024-04-15 07:40 pm SW 5.8 7.8----29.78-- 42.1----
2024-04-15 07:30 pm SW 5.8 7.8----29.79-- 42.1----
2024-04-15 07:20 pmWSW 7.8 9.7 4.3 96.2 SE29.79-- 41.9----
2024-04-15 07:10 pmWSW 5.8 7.8 4.3-6.2 SE29.78-- 41.9----
2024-04-15 07:00 pmWSW 5.8 7.8----29.78+0.04- 41.9----
2024-04-15 06:50 pmWSW 7.8 7.8 4.6 106.3SSE29.78-- 41.9----
2024-04-15 06:40 pmWSW 7.8 9.7----29.78-- 42.1----
2024-04-15 06:30 pmWSW 9.7 11.7----29.77-- 42.1----
2024-04-15 06:20 pmWSW 9.7 11.7 4.6 96.0SSE29.77-- 42.1----
2024-04-15 06:10 pm SW 9.7 11.7 4.6-6.0SSE29.76-- 42.3----
2024-04-15 06:00 pm SW 9.7 11.7----29.76+0.02- 42.3----
2024-04-15 05:50 pm SW 9.7 13.6 4.9 106.3SSE29.76-- 42.3----
2024-04-15 05:40 pm SW 11.7 13.6----29.76-- 42.1----
2024-04-15 05:30 pm SW 11.7 13.6----29.76-- 42.1----
2024-04-15 05:20 pm SW 11.7 13.6 4.9 106.2SSE29.75-- 42.1----
2024-04-15 05:10 pm SW 13.6 15.5----29.75-- 42.3----
2024-04-15 05:00 pm SW 13.6 15.5----29.75+0.02- 42.1----
2024-04-15 04:50 pm SW 13.6 15.5 4.3 106.1SSE29.75-- 42.1----
2024-04-15 04:40 pm SW 13.6 17.5----29.75-- 42.1----
2024-04-15 04:30 pm SW 13.6 15.5----29.75-- 42.1----
2024-04-15 04:20 pmSSW 13.6 15.5 4.3 106.1SSE29.74-- 42.1----
2024-04-15 04:10 pmSSW 13.6 15.5 4.3-6.1SSE29.74-- 42.3----
2024-04-15 04:00 pmSSW 13.6 15.5----29.74+0.02- 42.1----
2024-04-15 03:50 pmSSW 11.7 13.6 4.6 106.6SSE29.74-- 42.3----
2024-04-15 03:40 pm S 11.7 13.6----29.74-- 42.3----
2024-04-15 03:30 pm S 9.7 11.7----29.74-- 42.1----
2024-04-15 03:20 pmSSW 11.7 13.6 4.3 106.3SSE29.74-- 42.1----
2024-04-15 03:10 pmSSW 11.7 13.6 4.3-6.3SSE29.74-- 42.1----
2024-04-15 03:00 pmSSW 9.7 11.7----29.74+0.01- 42.4----
2024-04-15 02:50 pm SW 11.7 13.6 4.9 106.6SSE29.74-- 42.3----
2024-04-15 02:40 pm SW 11.7 13.6----29.74-- 42.1----
2024-04-15 02:30 pm SW 11.7 13.6----29.74-- 42.1----
2024-04-15 02:20 pm SW 9.7 11.7 4.6 106.6SSE29.73-- 42.1----
2024-04-15 02:10 pm SW 11.7 11.7 4.6-6.6SSE29.73-- 42.1----
2024-04-15 02:00 pm SW 9.7 11.7----29.73+0.00- 42.1----
2024-04-15 01:50 pm SW 9.7 11.7 4.3 106.4SSE29.73-- 41.9----
2024-04-15 01:40 pm SW 9.7 11.7----29.73-- 42.1----
2024-04-15 01:30 pm SW 9.7 11.7----29.72-- 41.7----
2024-04-15 01:20 pm SW 7.8 9.7 4.3 106.8SSE29.72-- 41.9----
2024-04-15 01:10 pm SW 7.8 9.7 4.3-6.8SSE29.72-- 41.9----
2024-04-15 01:00 pm SW 5.8 7.8----29.72+0.00- 41.9----
2024-04-15 12:50 pm SW 5.8 7.8 4.3 106.6SSE29.72-- 41.7----
2024-04-15 12:40 pmWSW 5.8 7.8----29.73-- 41.9----
2024-04-15 12:30 pmWSW 5.8 7.8----29.73-- 41.9----
2024-04-15 12:20 pmWSW 5.8 7.8 4.3 106.7SSE29.73-- 41.7----
2024-04-15 12:10 pmWSW 5.8 7.8 4.3-6.7SSE29.73-- 41.7----
2024-04-15 12:00 pmWSW 5.8 5.8----29.73+0.02- 41.7----
2024-04-15 11:50 am W 5.8 7.8 4.6 106.7 S29.73-- 41.7----
2024-04-15 11:40 am W 5.8 7.8----29.73-- 41.7----
2024-04-15 11:30 am W 5.8 7.8----29.73-- 41.7----
2024-04-15 11:20 am W 5.8 7.8 4.6 106.9SSE29.73-- 41.7----
2024-04-15 11:10 am W 5.8 7.8 4.6-6.9SSE29.73-- 41.7----
2024-04-15 11:00 am W 5.8 7.8----29.73+0.04- 41.5----
2024-04-15 10:50 amWNW 7.8 7.8 4.6 106.7SSE29.73-- 41.5----
2024-04-15 10:40 am W 5.8 7.8----29.73-- 41.5----
2024-04-15 10:30 am W 7.8 9.7----29.72-- 41.5----
2024-04-15 10:20 am W 7.8 9.7 4.3 106.2 S29.72-- 41.5----
2024-04-15 10:10 am W 7.8 7.8 4.3-6.2 S29.72-- 41.5----
2024-04-15 10:00 am W 7.8 7.8----29.72+0.04- 41.5----
2024-04-15 09:50 am W 7.8 9.7 4.6 106.5SSE29.71-- 41.5----

Detailed Wave Summary
for 44027 as of (9:40 am ADT)
1240 GMT on 04/16/2024:

These wave data are displayed in rounded times.

     

Click on the graph icon in the table below to see a time series plot of the last five days of that observation.

5-day plot - Significant Wave Height Significant Wave Height (WVHT): 4.3 ft
5-day plot - Swell Height Swell Height (SwH): 3.9 ft
5-day plot - Swell Period Swell Period (SwP): 9.1 sec
5-day plot - Swell Direction Swell Direction (SwD): S
5-day plot - Wind Wave Height Wind Wave Height (WWH): 0.7 ft
5-day plot - Wind Wave Period Wind Wave Period (WWP): 3.7 sec
5-day plot - Wind Wave Direction Wind Wave Direction (WWD): S
5-day plot - Wave Steepness Wave Steepness (STEEPNESS): SWELL
5-day plot - Average Wave Period Average Wave Period (APD): 7.1 sec
Previous observations
TIME
(ADT)
5-day plot - Wave Height
WVHT
ft
5-day plot - Swell Height
SwH
ft
5-day plot - Swell Period
SwP
sec
5-day plot - Swell Direction
SwD
 
5-day plot - Wind Wave Height
WWH
ft
5-day plot - Wind Wave Period
WWP
sec
5-day plot - Wind Wave Direction
WWD
 
5-day plot - Wave Steepness
STEEPNESS
 
5-day plot - Average Wave Period
APD
sec
2024-04-16 09:10 am 3.9 3.9 9.1 S 0.7 3.3 SSW SWELL 6.9
2024-04-16 08:40 am 4.3 4.3 9.1 S 0.7 3.6 SSW SWELL 7.0
2024-04-16 08:10 am 4.6 4.6 9.1 S 0.7 3.3 SW SWELL 7.1
2024-04-16 07:40 am 3.9 3.9 8.3 S 1.0 3.8 SSW AVERAGE 6.8
2024-04-16 07:10 am 4.3 4.3 9.1SSE 1.0 3.8 SW SWELL 6.9
2024-04-16 06:40 am 4.6 4.3 9.1SSE 0.7 3.8 SSW SWELL 7.0
2024-04-16 06:10 am 3.9 3.9 9.1SSE 1.0 3.8 SSW SWELL 6.6
2024-04-16 05:40 am 3.9 3.9 9.1SSE 1.0 3.2 SSW SWELL 6.5
2024-04-16 05:10 am 4.3 3.9 9.1SSE 1.0 3.8 SSW SWELL 6.6
2024-04-16 04:40 am 3.9 3.9 9.1SSE 1.0 3.8 S SWELL 6.4
2024-04-16 04:10 am 4.3 4.3 9.1SSE 1.0 4.0 S SWELL 6.5
2024-04-16 03:40 am 4.3 3.9 9.1SSE 1.0 3.8 S SWELL 6.4
2024-04-16 03:10 am 3.9 3.6 8.3 S 1.3 4.0 S AVERAGE 6.0
2024-04-16 02:40 am 3.9 3.6 9.1 S 1.3 4.0 S SWELL 6.0
2024-04-16 02:10 am 3.9 3.6 7.1 S 1.0 3.8 SSW AVERAGE 6.0
2024-04-16 01:40 am 3.9 3.9 10.0SSE 1.0 3.6 SSW SWELL 6.4
2024-04-16 01:10 am 4.3 3.9 9.1 S 1.0 3.8 SSW SWELL 6.3
2024-04-16 12:40 am 3.9 3.6 9.1SSE 1.0 3.8 SSW SWELL 6.2
2024-04-16 12:10 am 3.9 3.9 9.1SSE 1.0 4.0 S SWELL 6.4
2024-04-15 11:40 pm 3.6 3.6 9.1 S 1.0 3.8 SSW SWELL 6.1
2024-04-15 11:10 pm 4.3 3.9 9.1SSE 1.0 3.3 S SWELL 6.4
2024-04-15 10:40 pm 4.3 4.3 9.1SSE 1.0 3.4 SSW SWELL 6.5
2024-04-15 10:10 pm 4.6 3.9 10.0SSE 2.0 5.6 S SWELL 6.5
2024-04-15 09:40 pm 4.3 3.9 10.0SSE 1.0 3.8 SSW SWELL 6.5
2024-04-15 09:10 pm 4.3 4.3 10.0SSE 1.3 3.7 SW SWELL 6.4
2024-04-15 08:40 pm 4.3 4.3 10.0SSE 1.0 3.3 SW SWELL 6.8
2024-04-15 08:10 pm 4.6 4.3 10.0SSE 1.0 3.3 SW SWELL 6.6
2024-04-15 07:40 pm 3.9 3.9 10.0SSE 1.3 3.7 SW SWELL 6.1
2024-04-15 07:10 pm 4.3 3.9 9.1 SE 1.3 3.7 SSW SWELL 6.2
2024-04-15 06:40 pm 4.6 4.6 10.0SSE 1.3 3.2 SSW SWELL 6.3
2024-04-15 06:10 pm 4.6 4.3 9.1SSE 1.6 4.3 SSW SWELL 6.0
2024-04-15 05:40 pm 4.9 4.6 10.0SSE 2.0 5.0 S SWELL 6.3
2024-04-15 05:10 pm 4.9 4.3 10.0SSE 2.3 5.3 S SWELL 6.2
2024-04-15 04:40 pm 4.3 3.6 10.0SSE 2.6 5.3 S SWELL 6.1
2024-04-15 04:10 pm 4.3 3.6 10.0SSE 2.3 5.6 S SWELL 6.1
2024-04-15 03:40 pm 4.6 3.9 10.0SSE 2.0 5.6 S SWELL 6.6
2024-04-15 03:10 pm 4.3 3.9 10.0SSE 2.0 5.3 S SWELL 6.3
2024-04-15 02:40 pm 4.9 4.3 10.0SSE 2.0 4.8 S SWELL 6.6
2024-04-15 02:10 pm 4.6 4.3 10.0SSE 1.6 5.0 S SWELL 6.6
2024-04-15 01:40 pm 4.3 3.9 10.0SSE 1.6 4.8 S SWELL 6.4
2024-04-15 01:10 pm 4.3 4.3 10.0SSE 1.0 3.8 SSW SWELL 6.8
2024-04-15 12:40 pm 4.3 4.3 10.0SSE 1.0 4.0 S SWELL 6.6
2024-04-15 12:10 pm 4.3 4.3 10.0SSE 1.0 3.6 SSW SWELL 6.7
2024-04-15 11:40 am 4.6 4.6 10.0 S 1.0 3.8 SSE SWELL 6.7
2024-04-15 11:10 am 4.6 4.6 10.0SSE 1.0 4.0 SSE SWELL 6.9
2024-04-15 10:40 am 4.6 4.6 10.0SSE 1.3 3.8 SSE SWELL 6.7
2024-04-15 10:10 am 4.3 4.3 10.0 S 1.3 3.8 SSE SWELL 6.2

Plot of wave energy versus frequency (and period)